星链-30710 (STARLINK-30710 )

导读

STARLINK-30710是美国太空探索技术公司(SpaceX)于2023年9月25日发射的星链(Starlink)低轨通信卫星,属于第二代星链(Gen2)卫星,运行于近地轨道,参与构建全球卫星互联网星座。 作为星链星座的一员,它配备先进相控阵天线与激光星间链路,采用氩霍尔推进器实现轨道机动,依托Ku/Ka/Q/V频段提供高速低延迟宽带通信,支持全球偏远区域网络覆盖及动态带宽调度,服务全球用户接入,助力星链实现全球无缝互联的组网目标。

基本信息
目录编号:
57938
目录名称:
STARLINK-30710
国际标识:
2023-148D
轨道中心:
EARTH
卫星名称:
星链-30710
卫星全名:
星链-30710 (STARLINK-30710 )
卫星状态:
在轨 (已飞行1075 天)
发射日期:
2023-09-25 UTC
国别 :
美国 (US)
星等 :
--
轨道信息
数据来源 国际轨道数据
星历时间: 2026-09-03T19:28:24+0800
1天前
查看轨道信息
半长轴: 6840.866km
偏心率: 0.0001192
轨道倾角: 53.160°
近地点辐角 82.238°
升交点赤经 264.985°
平近点角 277.876°
近地点: 461.913km
远地点: 463.545km
周期: 93.848分钟
每日圈数: 15.343916
详细信息
固有亮度:
5
最大亮度:
0.3
卫星平台:
Starlink v2.0 mini
覆盖范围:
全球
运营商:
太空探索技术公司
运营商所在国:
美国
制造商(研发单位):
太空探索技术公司
制造商所在国:
美国
使用方式:
暂无
卫星简介
星链(Starlink)计划是由太空探索技术公司(SpaceX)提出的一个巨型低轨卫星互联网星座项目,计划在2019年至2024年间在太空搭建由约1.2万颗卫星组成的“星链”网络,其中1584颗将部署在地球上空550千米处的近地轨道,并从2020年开始工作。该卫星仍在工作。
2D轨道图
3D轨道图
轨道高度分析图
轨道倾角分析图
轨道综合分析图
查看轨道综合分析图
交会数据列表
事件ID 空间交会对象 最接近时刻(TCA) 交会距离 交会风险概率(CRP) 交会风险指数(CRI) 操作
CDM_260906-201505-793806-825121
2026-09-06T
20:15:47+0000
0.454 km
远距离
1.717911E-4 高风险 0.8
CDM_260906-052505-793806-920321
2026-09-06T
05:25:07+0000
1.149 km
极远距离
1.007278E-5 中风险 0.55
CDM_260906-065805-793806-920321
2026-09-06T
06:58:55+0000
1.975 km
极远距离
1.876936E-6 低风险 0.4
CDM_260906-103105-469505-793821
OBJECT P (54695)
2026-09-06T
10:31:35+0000
2.511 km
极远距离
1.739008E-6 低风险 0.4
CDM_260906-000605-793806-442921
2026-09-06T
00:06:38+0000
2.208 km
极远距离
1.699758E-6 低风险 0.4
CDM_260906-131305-793806-825121
2026-09-06T
13:13:43+0000
2.755 km
极远距离
1.014262E-6 低风险 0.35